Date_and_time,latitude,longitude,wind_speed,RelWindDirFrom,WindDirFrom,air_pressure,air_temperature,relative_humidity,Temp,platform_speed_wrt_ground,air_pressure_at_mean_sea_level,platform_orientation
2019-04-12 23:50,50.6304433333333,-96.980775,10.6,12.9,8,981.62,1.3,73,2.52,0.0,1009.15,39.5
2019-04-13 00:00,50.6304433333333,-96.9807733333333,12.3,16.4,1,981.59,1.3,70,2.53,0.0,1009.12,270.0
2019-04-13 00:10,50.6304416666667,-96.9807716666667,11.7,15.3,6,981.62,1.2,71,2.54,0.0,1009.15,270.0
2019-04-13 00:20,50.63045,-96.9808,11.9,14.7,6,981.74,1.3,69,2.56,0.0,1009.28,270.0
2019-04-13 00:30,50.630435,-96.98078,11.3,14.9,359,981.80,1.7,66,2.57,0.0,1009.32,270.0
2019-04-13 00:40,50.6304483333333,-96.9807983333333,13.3,17.1,0,981.74,2.1,60,2.59,0.0,1009.25,270.0
2019-04-13 00:50,50.6304366666667,-96.9807783333333,12.1,17.1,360,981.85,1.6,64,2.60,0.0,1009.39,270.0
2019-04-13 01:00,50.630435,-96.9807733333333,12.1,15.7,357,981.92,1.1,66,2.62,0.0,1009.46,228.3
2019-04-13 01:10,50.6304383333333,-96.980775,12.9,16.2,357,981.92,0.8,67,2.62,0.0,1009.47,228.3
2019-04-13 01:20,50.6304383333333,-96.980785,14.2,17.9,356,981.86,0.7,66,2.62,0.0,1009.41,228.3
2019-04-13 01:30,50.6304416666667,-96.980785,14.6,17.8,355,981.87,0.7,64,2.63,0.0,1009.44,228.3
2019-04-13 01:40,50.630445,-96.9807866666667,15.1,20.4,355,981.94,0.8,62,2.64,0.0,1009.53,228.3
2019-04-13 01:50,50.630445,-96.9807866666667,14.9,18.8,356,982.05,0.6,62,2.64,0.0,1009.65,228.3
2019-04-13 02:00,50.630445,-96.980785,14.0,19.5,1,982.15,0.4,62,2.62,0.0,1009.77,270.0
2019-04-13 02:10,50.6304466666667,-96.9807833333333,13.8,16.6,359,982.26,0.3,61,2.60,0.0,1009.88,270.0
2019-04-13 02:20,50.6304316666667,-96.9807866666667,13.2,16.9,359,982.36,0.0,63,2.59,0.0,1009.98,270.0
2019-04-13 02:30,50.630435,-96.9807833333333,13.3,17.7,358,982.37,-0.1,63,2.59,0.0,1009.98,270.0
2019-04-13 02:40,50.630435,-96.9807766666667,14.7,19.1,357,982.39,0.2,58,2.59,0.0,1010.01,270.0
2019-04-13 02:50,50.6304383333333,-96.9807766666667,13.5,16.9,358,982.44,0.4,57,2.59,0.0,1010.08,270.0
2019-04-13 03:00,50.63044,-96.980775,12.1,15.2,354,982.50,0.2,58,2.59,0.0,1010.16,90.0
2019-04-13 03:10,50.6304583333333,-96.980775,12.9,16.0,355,982.54,0.6,54,2.60,0.0,1010.19,90.0
2019-04-13 03:20,50.6304416666667,-96.9807733333333,13.8,18.9,356,982.60,0.8,54,2.59,0.0,1010.23,90.0
2019-04-13 03:30,50.6304416666667,-96.9807666666667,14.3,17.8,359,982.67,0.6,57,2.58,0.0,1010.31,90.0
2019-04-13 03:40,50.6304433333333,-96.9807683333333,14.2,17.6,1,982.79,0.5,58,2.58,0.0,1010.45,90.0
2019-04-13 03:50,50.6304433333333,-96.98077,12.8,15.8,358,982.90,0.2,61,2.59,0.0,1010.59,90.0
2019-04-13 04:00,50.6304433333333,-96.98077,13.6,16.9,358,982.87,0.3,59,2.59,0.0,1010.56,48.3
2019-04-13 04:10,50.630435,-96.9807683333333,12.9,16.3,1,982.92,0.2,61,2.60,0.0,1010.64,48.3
2019-04-13 04:20,50.630435,-96.980775,12.9,16.9,0,983.05,0.0,62,2.62,0.0,1010.78,48.3
2019-04-13 04:30,50.6304383333333,-96.980775,12.0,15.5,358,983.13,-0.1,63,2.62,0.0,1010.85,48.3
2019-04-13 04:40,50.6304433333333,-96.9807783333333,12.5,15.1,360,983.16,-0.1,63,2.62,0.0,1010.87,48.3
2019-04-13 04:50,50.630445,-96.98077,13.7,16.2,8,983.13,-0.0,62,2.62,0.0,1010.85,48.3
2019-04-13 05:00,50.6304433333333,-96.9807716666667,13.4,17.9,3,983.21,-0.1,62,2.61,0.0,1010.91,90.0
2019-04-13 05:10,50.6304433333333,-96.9807716666667,11.3,14.5,4,983.33,-0.1,63,2.61,0.0,1011.03,90.0
2019-04-13 05:20,50.6304433333333,-96.9807733333333,9.8,12.1,359,983.45,-0.5,66,2.62,0.0,1011.18,90.0
2019-04-13 05:30,50.6304433333333,-96.9807733333333,9.5,11.8,352,983.51,-0.2,61,2.62,0.0,1011.23,90.0
2019-04-13 05:40,50.6304433333333,-96.9807733333333,10.7,14.5,357,983.54,0.1,59,2.62,0.0,1011.26,90.0
2019-04-13 05:50,50.6304283333333,-96.980785,10.8,13.2,359,983.58,0.1,60,2.63,0.0,1011.30,90.0
2019-04-13 06:00,50.6304433333333,-96.9807783333333,10.6,13.1,359,983.58,0.3,59,2.63,0.0,1011.30,270.0
2019-04-13 06:10,50.6304416666667,-96.9807733333333,10.8,13.4,1,983.59,0.4,57,2.63,0.0,1011.31,270.0
2019-04-13 06:20,50.6304416666667,-96.9807716666667,10.7,12.6,5,983.65,0.4,58,2.63,0.0,1011.38,270.0
2019-04-13 06:30,50.6304416666667,-96.98077,9.3,11.2,6,983.75,0.1,60,2.63,0.0,1011.49,270.0
2019-04-13 06:40,50.63044,-96.9807716666667,8.7,10.4,359,983.86,-0.1,60,2.64,0.0,1011.61,270.0
2019-04-13 06:50,50.6304383333333,-96.98077,8.7,10.5,353,983.90,0.0,58,2.64,0.0,1011.65,270.0
2019-04-13 07:00,50.6304166666667,-96.9807933333333,8.1,9.7,346,983.95,0.1,55,2.63,0.0,1011.70,219.5
2019-04-13 07:10,50.6304266666667,-96.98076,6.7,8.0,337,984.02,0.2,52,2.63,0.0,1011.79,219.5
2019-04-13 07:20,50.63044,-96.9807683333333,4.8,7.3,302,984.08,0.3,49,2.63,0.0,1011.82,219.5
2019-04-13 07:30,50.6304283333333,-96.9807666666667,4.7,7.3,284,984.17,-0.1,52,2.62,0.0,1011.92,219.5
2019-04-13 07:40,50.6304283333333,-96.980765,4.9,6.9,282,984.28,-0.6,57,2.62,0.0,1012.07,219.5
2019-04-13 07:50,50.63043,-96.980765,5.9,7.8,289,984.31,-0.8,57,2.62,0.0,1012.10,219.5
2019-04-13 08:00,50.6304316666667,-96.9807666666667,5.4,7.5,302,984.42,-0.8,56,2.62,0.0,1012.21,138.7
2019-04-13 08:10,50.6304316666667,-96.9807666666667,5.4,7.7,303,984.49,-0.7,54,2.62,0.0,1012.28,138.7
2019-04-13 08:20,50.6304316666667,-96.9807683333333,5.4,7.8,300,984.57,-0.8,53,2.62,0.0,1012.38,138.7
2019-04-13 08:30,50.6304333333333,-96.9807683333333,5.0,7.0,292,984.63,-0.9,54,2.63,0.0,1012.45,138.7
2019-04-13 08:40,50.6304683333333,-96.98077,5.6,7.4,289,984.77,-1.2,55,2.63,0.0,1012.61,138.7
2019-04-13 08:50,50.6304533333333,-96.9807616666667,6.0,7.9,296,984.88,-1.4,55,2.62,0.0,1012.72,138.7
2019-04-13 09:00,50.6304466666667,-96.98076,6.0,8.4,302,984.96,-1.5,55,2.61,0.0,1012.81,72.3
2019-04-13 09:10,50.6304433333333,-96.9807633333333,6.1,8.9,308,985.05,-1.5,55,2.60,0.0,1012.90,72.3
2019-04-13 09:20,50.6304416666667,-96.980765,6.2,8.2,308,985.14,-1.5,54,2.60,0.0,1013.01,72.3
2019-04-13 09:30,50.63044,-96.9807666666667,5.6,7.7,305,985.28,-1.5,54,2.59,0.0,1013.18,72.3
2019-04-13 09:40,50.63044,-96.9807666666667,5.4,7.2,292,985.40,-1.8,56,2.58,0.0,1013.33,72.3
2019-04-13 09:50,50.6304383333333,-96.9807666666667,6.1,8.0,285,985.53,-2.2,58,2.58,0.0,1013.49,72.3
2019-04-13 10:00,50.6304383333333,-96.980765,5.3,7.7,305,985.58,-2.4,59,2.56,0.0,1013.54,33.4
2019-04-13 10:10,50.63042,-96.980735,5.2,7.0,318,985.61,-2.2,57,2.55,0.0,1013.57,33.4
2019-04-13 10:20,50.6304316666667,-96.9807566666667,4.7,6.7,323,985.77,-2.2,57,2.54,0.0,1013.74,33.4
2019-04-13 10:30,50.6304366666667,-96.9807733333333,5.3,8.3,302,985.98,-2.2,56,2.54,0.0,1013.97,33.4
2019-04-13 10:40,50.63044,-96.9807666666667,6.1,8.4,290,986.16,-2.5,58,2.52,0.0,1014.17,33.4
2019-04-13 10:50,50.6304416666667,-96.9807666666667,6.6,9.4,286,986.24,-2.8,60,2.52,0.0,1014.28,33.4
2019-04-13 11:00,50.630445,-96.9807633333333,6.3,8.8,296,986.29,-3.0,61,2.51,0.0,1014.34,38.0
2019-04-13 11:10,50.6304483333333,-96.98077,6.2,8.5,299,986.40,-3.0,61,2.52,0.0,1014.45,38.0
2019-04-13 11:20,50.63044,-96.9807733333333,6.1,8.7,296,986.51,-3.0,61,2.52,0.0,1014.58,38.0
2019-04-13 11:30,50.63044,-96.9807716666667,6.6,9.4,292,986.60,-3.1,62,2.52,0.0,1014.69,38.0
2019-04-13 11:40,50.6304416666667,-96.9807666666667,6.1,7.9,288,986.72,-3.4,63,2.51,0.0,1014.85,38.0
2019-04-13 11:50,50.6304433333333,-96.9807666666667,6.2,7.7,284,986.90,-3.5,63,2.50,0.0,1015.04,38.0
2019-04-13 12:00,50.6304433333333,-96.980765,5.6,7.1,294,987.02,-3.6,64,2.48,0.0,1015.17,192.6
2019-04-13 12:10,50.6304416666667,-96.9807633333333,5.8,7.5,289,987.17,-3.7,65,2.47,0.0,1015.32,192.6
2019-04-13 12:20,50.6304416666667,-96.9807616666667,6.2,7.8,287,987.27,-3.6,65,2.47,0.0,1015.43,192.6
2019-04-13 12:30,50.6304416666667,-96.9807616666667,6.6,8.8,289,987.36,-3.4,64,2.47,0.0,1015.52,192.6
2019-04-13 12:40,50.63044,-96.98076,6.0,8.3,290,987.46,-3.2,63,2.47,0.0,1015.63,192.6
2019-04-13 12:50,50.63044,-96.98076,6.2,8.6,291,987.56,-3.0,63,2.47,0.0,1015.73,192.6
2019-04-13 13:00,50.6304383333333,-96.98076,5.5,7.5,302,987.70,-2.5,60,2.47,0.0,1015.84,90.0
2019-04-13 13:10,50.6304383333333,-96.98076,5.2,7.8,297,987.86,-2.0,58,2.48,0.0,1015.99,90.0
2019-04-13 13:20,50.6304383333333,-96.9807616666667,5.4,7.1,298,988.00,-1.7,56,2.47,0.0,1016.12,90.0
2019-04-13 13:30,50.6304383333333,-96.9807616666667,5.4,7.3,302,988.10,-1.3,53,2.44,0.0,1016.22,90.0
2019-04-13 13:40,50.6304383333333,-96.9807616666667,5.3,7.0,309,988.15,-1.0,51,2.42,0.0,1016.26,90.0
2019-04-13 13:50,50.6304383333333,-96.9807633333333,3.6,5.5,311,988.29,-0.5,50,2.41,0.0,1016.38,90.0
2019-04-13 14:00,50.6304383333333,-96.9807633333333,3.3,5.6,309,988.39,-0.0,49,2.41,0.0,1016.46,90.0
2019-04-13 14:10,50.6304266666667,-96.9808083333333,3.8,5.6,304,988.46,0.6,46,2.41,0.0,1016.50,90.0
2019-04-13 14:20,50.6304483333333,-96.9807683333333,4.5,6.3,308,988.45,1.2,44,2.40,0.0,1016.44,90.0
2019-04-13 14:30,50.6304466666667,-96.98077,3.8,5.5,315,988.51,1.8,42,2.39,0.0,1016.46,90.0
2019-04-13 14:40,50.6304433333333,-96.98077,3.8,4.9,42,988.61,0.8,54,2.38,0.0,1016.61,90.0
2019-04-13 14:50,50.6304433333333,-96.98077,4.0,5.0,51,988.78,0.3,53,2.39,0.0,1016.78,90.0
2019-04-13 15:00,50.6304433333333,-96.98077,4.8,5.6,67,988.87,0.3,55,2.38,0.0,1016.85,0.0
2019-04-13 15:10,50.6304433333333,-96.9807716666667,4.1,5.0,75,988.94,0.9,56,2.37,0.0,1016.87,0.0
2019-04-13 15:20,50.63043,-96.980775,3.0,3.9,85,989.04,2.0,51,2.37,0.0,1016.91,0.0
2019-04-13 15:30,50.63044,-96.9807666666667,3.6,4.6,92,989.13,2.8,48,2.36,0.0,1016.93,0.0
2019-04-13 15:40,50.63044,-96.9807666666667,4.0,5.2,100,989.21,2.8,54,2.36,0.0,1016.99,0.0
2019-04-13 15:50,50.6304416666667,-96.9807683333333,4.5,6.1,101,989.24,2.3,60,2.36,0.0,1017.03,0.0
2019-04-13 16:00,50.6304233333333,-96.9807516666667,4.1,5.2,112,989.34,1.7,65,2.36,0.0,1017.13,156.5
2019-04-13 16:10,50.6304233333333,-96.9807633333333,4.0,5.1,114,989.47,1.1,65,2.36,0.0,1017.26,156.5
2019-04-13 16:20,50.6304366666667,-96.9807566666667,4.7,5.7,104,989.52,1.2,63,2.36,0.0,1017.28,156.5
2019-04-13 16:30,50.6304366666667,-96.980765,4.2,5.4,97,989.58,2.3,60,2.36,0.0,1017.33,156.5
2019-04-13 16:40,50.6304383333333,-96.9807633333333,4.8,6.4,107,989.64,1.8,62,2.36,0.0,1017.45,156.5
2019-04-13 16:50,50.6304383333333,-96.980765,5.2,6.5,113,989.66,1.7,63,2.37,0.0,1017.47,156.5
2019-04-13 17:00,50.6304383333333,-96.980765,5.8,6.8,115,989.69,1.2,65,2.37,0.0,1017.49,0.0
2019-04-13 17:10,50.6304383333333,-96.980765,5.7,6.8,116,989.75,1.2,65,2.37,0.0,1017.50,0.0
2019-04-13 17:20,50.6304383333333,-96.9807666666667,6.2,7.0,99,989.71,1.9,62,2.38,0.0,1017.38,0.0
2019-04-13 17:30,50.63044,-96.9807683333333,5.9,7.3,118,989.78,2.0,63,2.38,0.0,1017.45,0.0
2019-04-13 17:40,50.6304466666667,-96.98078,6.3,8.0,124,989.81,1.3,68,2.38,0.0,1017.54,0.0
2019-04-13 17:50,50.6304483333333,-96.98079,6.8,7.8,110,989.78,1.4,67,2.39,0.0,1017.54,0.0
2019-04-13 18:00,50.63045,-96.9807766666667,6.2,7.2,113,989.81,1.4,69,2.39,0.0,1017.60,360.0
2019-04-13 18:10,50.6304383333333,-96.9807833333333,6.6,8.0,121,989.75,1.4,71,2.39,0.0,1017.54,360.0
2019-04-13 18:20,50.63045,-96.9807783333333,7.1,8.3,135,989.74,1.0,70,2.39,0.0,1017.49,360.0
2019-04-13 18:30,50.6304483333333,-96.980775,7.1,8.4,147,989.81,0.7,72,2.40,0.0,1017.60,360.0
2019-04-13 18:40,50.630445,-96.98077,6.9,8.2,147,989.74,0.6,73,2.40,0.0,1017.54,360.0
2019-04-13 18:50,50.630445,-96.98077,7.8,9.4,147,989.75,0.8,66,2.41,0.0,1017.57,360.0
2019-04-13 19:00,50.6304433333333,-96.98077,8.5,9.9,143,989.72,1.0,63,2.42,0.0,1017.52,316.6
2019-04-13 19:10,50.6304433333333,-96.98077,7.3,8.7,126,989.70,2.1,58,2.43,0.0,1017.41,316.6
2019-04-13 19:20,50.6304433333333,-96.98077,6.8,8.6,128,989.70,2.3,60,2.43,0.0,1017.39,316.6
2019-04-13 19:30,50.6304433333333,-96.9807716666667,8.0,9.2,117,989.67,2.7,57,2.43,0.0,1017.38,316.6
2019-04-13 19:40,50.6304433333333,-96.9807716666667,8.0,9.3,118,989.61,2.8,57,2.44,0.0,1017.31,316.6
2019-04-13 19:50,50.630445,-96.9807733333333,6.9,8.7,125,989.57,2.5,61,2.44,0.0,1017.28,316.6
2019-04-13 20:00,50.630445,-96.9807733333333,7.0,8.1,101,989.52,3.3,57,2.44,0.0,1017.19,270.0
2019-04-13 20:10,50.630445,-96.9807733333333,6.9,8.0,108,989.51,3.8,58,2.44,0.0,1017.17,270.0
2019-04-13 20:20,50.630445,-96.9807733333333,7.5,8.3,104,989.42,3.4,59,2.44,0.0,1017.11,270.0
2019-04-13 20:30,50.6304433333333,-96.9807716666667,6.6,8.0,109,989.30,3.3,60,2.46,0.0,1017.01,270.0
2019-04-13 20:40,50.6304483333333,-96.9807633333333,6.7,7.6,105,989.20,3.5,60,2.47,0.0,1016.88,270.0
2019-04-13 20:50,50.63045,-96.9807716666667,6.5,7.7,93,989.07,4.1,55,2.47,0.0,1016.71,270.0
2019-04-13 21:00,50.6304483333333,-96.9807666666667,6.4,7.3,112,989.08,4.0,58,2.48,0.0,1016.67,167.4
2019-04-13 21:10,50.6304466666667,-96.980765,6.1,7.0,115,989.11,3.1,63,2.49,0.0,1016.73,167.4
2019-04-13 21:20,50.6304466666667,-96.980765,7.4,8.6,95,989.05,3.9,56,2.50,0.0,1016.61,167.4
2019-04-13 21:30,50.6304466666667,-96.980765,7.9,8.9,94,989.10,4.4,53,2.51,0.0,1016.63,167.4
2019-04-13 21:40,50.6304466666667,-96.9807666666667,7.2,8.2,102,989.16,4.2,56,2.52,0.0,1016.72,167.4
2019-04-13 21:50,50.6304466666667,-96.9807666666667,6.8,7.7,109,989.15,3.8,60,2.52,0.0,1016.69,167.4
2019-04-13 22:00,50.6304466666667,-96.9807666666667,7.5,8.5,106,989.15,3.5,60,2.52,0.0,1016.68,360.0
2019-04-13 22:10,50.6304466666667,-96.9807666666667,7.5,8.6,106,989.11,3.6,61,2.52,0.0,1016.66,360.0
2019-04-13 22:20,50.6304483333333,-96.9807683333333,7.6,8.5,107,989.10,3.5,61,2.52,0.0,1016.65,360.0
2019-04-13 22:30,50.63045,-96.9807683333333,8.1,8.8,103,989.10,3.6,60,2.53,0.0,1016.63,360.0
2019-04-13 22:40,50.63044,-96.9807383333333,8.7,9.4,97,989.01,4.0,56,2.55,0.0,1016.49,360.0
2019-04-13 22:50,50.6304433333333,-96.9807683333333,8.0,9.4,95,988.93,4.2,55,2.55,0.0,1016.41,360.0
2019-04-13 23:00,50.6304416666667,-96.9807733333333,9.0,10.1,96,988.90,4.1,56,2.56,0.0,1016.43,0.0
2019-04-13 23:10,50.6304433333333,-96.9807733333333,8.9,10.2,93,988.82,3.9,56,2.57,0.0,1016.30,0.0
2019-04-13 23:20,50.6304433333333,-96.9807733333333,9.6,10.7,99,988.86,3.7,58,2.58,0.0,1016.33,0.0
2019-04-13 23:30,50.630445,-96.9807733333333,8.8,10.0,108,988.92,3.0,62,2.59,0.0,1016.44,0.0
2019-04-13 23:40,50.6304466666667,-96.9807733333333,9.8,10.8,112,988.90,2.7,63,2.59,0.0,1016.46,0.0
2019-04-13 23:50,50.6304466666667,-96.9807733333333,9.9,11.6,118,988.86,2.6,63,2.59,0.0,1016.44,0.0
